Regional Weather Roundup
Issued by NWS Cleveland, OH

Home | Current Version | Previous Version | Graphics & Text | Print | Product List | Glossary On
Versions: 1 2 3 4 5 6 7 8 9 10 11 12 13 14 15 16 17 18 19 20 21 22 23 24 25 26 27 28 29 30 31 32 33 34 35 36 37 38 39 40 41 42 43 44 45 46 47 48 49 50
000
ASUS41 KCLE 041500
RWRCLE
OHIO REGIONAL WEATHER ROUNDUP
NATIONAL WEATHER SERVICE WILMINGTON, OH
1100 AM EDT SAT JUL 04 2015

NOTE: "FAIR" INDICATES FEW OR NO CLOUDS BELOW 12,000 FEET WITH NO
SIGNIFICANT WEATHER AND/OR OBSTRUCTIONS TO VISIBILITY.

OHZ001>008-015>018-024>027-034-035-043-044-041600-
   NORTHWEST OHIO

CITY           SKY/WX    TMP DP  RH WIND       PRES   REMARKS
DEFIANCE       SUNNY     74  57  55 CALM      30.00S
FINDLAY        SUNNY     72  55  55 N5        30.00S
TOLEDO EXPRESS SUNNY     72  53  51 CALM      29.99S
TOLEDO EXEC    SUNNY     73  55  53 VRB3      30.00S
LIMA           SUNNY     70  56  61 NE5       30.01S
$$

OHZ009>014-019>023-028>033-038-089-041600-
   NORTHEAST OHIO

CITY           SKY/WX    TMP DP  RH WIND       PRES   REMARKS
CLE-HOPKINS    SUNNY     71  54  54 N8        30.01R
CLE-LAKEFRONT  SUNNY     70  58  65 N8        29.99R
CUY CO. ARPT   SUNNY     72  57  60 N9        30.00
LORAIN-ELYRIA  SUNNY     70  55  59 VRB7      30.01R
ASHTABULA      SUNNY     71  53  52 N7        29.99R
AKRON-CANTON   MOSUNNY   73  58  59 N7        29.98R
WOOSTER        NOT AVBL
MANSFIELD      SUNNY     69  55  60 N8        30.01S
YOUNGSTOWN     MOSUNNY   72  57  59 N9        29.97R
$$

OHZ042-051>053-060>062-070>072-077>081-041600-
  SOUTHWEST OHIO

CITY           SKY/WX    TMP DP  RH WIND       PRES   REMARKS
CINC-COVINGTON PTSUNNY   74  61  63 N7        30.02R
CINC-LUNKEN    MOSUNNY   74  60  61 E3        30.01S
HAMILTON       SUNNY     75  57  53 N8        30.02S
DAYTON         NOT AVBL
WRIGHT-PAT AFB SUNNY     71  56  58 VRB3      30.01S
DAYTON GENERAL SUNNY     73  55  53 N9        30.01S
WILMINGTON     SUNNY     72  51  47 VRB6      30.01R
$$

OHZ036-037-039>041-045>050-054>059-063>069-073>076-082>088-041600-
  CENTRAL AND SOUTHEAST OHIO

CITY           SKY/WX    TMP DP  RH WIND       PRES   REMARKS
COLUMBUS       SUNNY     71  59  65 N5        29.99R
OSU AIRPORT    SUNNY     71  56  58 N9        30.00S
BOLTON FIELD   NOT AVBL
RICKENBACK AFB NOT AVBL
NEWARK         SUNNY     74  59  59 VRB3      29.99R
MARION         SUNNY     70  56  61 N8        30.01S
LANCASTER      SUNNY     72  61  68 N6        30.00R
ZANESVILLE     SUNNY     72  60  66 VRB3      29.98S
NEW PHILLY     SUNNY     71  60  68 VRB3      29.98R
$$



USA.gov is the U.S. government's official web portal to all federal, state and local government web resources and services.